Regional Weather Roundup
Issued by NWS Northern Indiana

Home | Current Version | Previous Version | Text Only | Print | Product List | Glossary Off
Versions: 1 2 3 4 5 6 7 8 9 10 11 12 13 14 15 16 17 18 19 20 21 22 23 24 25 26 27 28 29 30 31 32 33 34 35 36 37 38 39 40 41 42 43 44 45 46 47 48 49 50

000
ASUS43 KIWX 040810
RWRIWX

KIWX WEATHER ROUNDUP
NATIONAL WEATHER SERVICE NORTHERN INDIANA
400 AM EDT WED MAY 04 2016

NOTE: "FAIR" INDICATES FEW OR NO CLOUDS BELOW 12,000 FEET WITH NO
SIGNIFICANT WEATHER AND/OR OBSTRUCTIONS TO VISIBILITY.

* THESE STATIONS ARE NOT UNDER NWS QUALITY CONTROL. THEY ALSO MAY NOT
  REPORT WEATHER SUCH AS PRECIPITATION OR FOG.

INZ001>027-040900-
NORTHERN INDIANA

CITY           SKY/WX    TMP DP  RH WIND       PRES   REMARKS
GARY*          RAIN      52  52 100 CALM      29.64F
VALPARAISO     RAIN      51  46  83 W17G25    29.65F
MICHIGAN CITY* CLOUDY    55  43  62 SW15G23   29.64S
LAPORTE*       CLOUDY    56  44  64 SW12G21   29.63F
KNOX*          CLOUDY    54  36  50 SW13      29.64F
SOUTH BEND     CLOUDY    54  42  64 SW12      29.63F
GOSHEN         CLOUDY    54  44  69 S13       29.64F
MONTICELLO*    CLOUDY    54  41  62 SW12      29.66F
LOGANSPORT*    MOCLDY    52  45  76 SW13      29.68F
ROCHESTER*     CLOUDY    55  46  71 SW9       29.66F
WARSAW*        CLOUDY    54  43  66 SW7       29.65F
ANGOLA*        PTCLDY    52  45  76 S7        29.64F
FORT WAYNE     CLOUDY    52  44  74 SW12      29.68F
HUNTINGTON*    CLOUDY    52  43  73 SW7       29.68F
PERU/GRISSOM   CLOUDY    52  46  82 SW13      29.66F
MARION*        PTCLDY    50  44  81 SW9       29.70F

$$
INZ028>050-040900-
CENTRAL INDIANA

CITY           SKY/WX    TMP DP  RH WIND       PRES   REMARKS
LAFAYETTE      CLOUDY    52  44  74 SW7       29.69F
KOKOMO*        CLOUDY    54  43  66 SW12      29.69F
MUNCIE*        CLOUDY    54  44  69 SW9       29.71F
INDIANAPOLIS   CLOUDY    52  44  74 SW12      29.72F

$$
MIZ043>046-050>051-056>058-064>065-071>073-077>080-040900-
SOUTHWEST LOWER MICHIGAN

CITY           SKY/WX    TMP DP  RH WIND       PRES   REMARKS
BATTLE CREEK   CLOUDY    51  44  77 S12       29.62F
BENTON HARBOR  CLOUDY    56  41  57 SW17G28   29.61F
COLDWATER*     CLOUDY    53  43  70 SW6       29.64F
HILLSDALE*     CLOUDY    53  38  57 S7        29.65F
HOLLAND        CLOUDY    51  43  74 SW10      29.60F
GRAND RAPIDS   CLOUDY    55  42  61 S8        29.58F
KALAMAZOO      CLOUDY    52  43  71 S6        29.62F
STURGIS*       LGT RAIN  51  44  79 S5        29.63F
THREE RIVERS*  MOCLDY    52  44  73 S3        29.63F

$$
OHZ001>008-015>018-024>025-040900-
NORTHWEST OHIO

CITY           SKY/WX    TMP DP  RH WIND       PRES   REMARKS
WAUSEON*       LGT RAIN  52 N/A N/A S8        29.67F
DEFIANCE       CLOUDY    53  44  71 S8        29.68F
FINDLAY        CLOUDY    50  42  74 S9        29.70F
TOLEDO EXPRESS CLOUDY    49  44  83 S6        29.68F
TOLEDO METCALF MOCLDY    50  43  77 SW7       29.70F
LIMA           MOCLDY    48  44  86 S8        29.71F

$$
AND FOR LAKE MICHIGAN COASTAL AND OPEN LAKE BUOY OBSERVATIONS

STATION/POSITION TEMP    WIND        PRES    VSBY  WAVE
                 AIR SEA DIR/SP/G                  HT/PER
                 (F)     (DEG/KT/KT) (MB)    (MI)  (FT/S)
CALUMET HARBOR    54     220/ 12/ 18 1002.8F
MICHIGAN CITY     58     190/ 15/ 19   N/A
BURNS HARBOR      58     220/ 15/ 25 1003.7F
SAINT JOSEPH      52     220/ 15/ 26 1003.4F
SOUTH LAKE BUOY   45 41   10/ 14/ 16 1002.5F         1/ 3
4 MI NW BRIDGMAN  52 49                N/A           2/ 3

$$
&&




USA.gov is the U.S. government's official web portal to all federal, state and local government web resources and services.